Regional Weather Roundup
Issued by NWS

Home | Current Version | Previous Version | Graphics & Text | Print | Product List | Glossary On
Versions: 1 2 3 4 5 6 7 8 9 10 11 12 13 14 15 16 17 18 19 20 21 22 23 24 25 26 27 28 29 30 31 32 33 34 35 36 37 38 39 40 41 42 43 44 45 46 47 48 49 50
000
ASUS43 KDTX 172301
RWRMI
MICHIGAN HOURLY REGIONAL WEATHER ROUNDUP
NATIONAL WEATHER SERVICE DETROIT/PONTIAC MI
700 PM EDT THU APR 17 2014

NOTE: "FAIR" INDICATES FEW OR NO CLOUDS BELOW 12,000 FEET WITH NO
SIGNIFICANT WEATHER AND/OR OBSTRUCTION TO VISIBILITY.

MIZ047>049-052>055-059>063-066>070-074>076-081>083-180000-
SOUTHEAST LOWER MICHIGAN

CITY           SKY/WX    TMP DP  RH WIND       PRES   REMARKS
ADRIAN         SUNNY     64  27  24 SW13G22   30.22S
ALMA           MOSUNNY   60  36  39 W12       30.18R
ANN ARBOR      SUNNY     65  26  23 SW15      30.21F
BAD AXE        MOSUNNY   57  35  42 S16G22    30.21F
CARO           MOSUNNY   64  30  28 S13G18    30.19S
DETROIT CITY   MOSUNNY   64  33  31 SE10      30.23F
DETROIT        PTSUNNY   61  34  36 SE10      30.23F
FLINT          MOSUNNY   64  30  27 S8        30.19F
GROSSE ILE     MOSUNNY   57  34  41 SE12      30.22F
HILLSDALE      MOSUNNY   64  30  28 SW12      30.21F
HOWELL         MOSUNNY   62  28  27 SW9       30.20S

CITY           SKY/WX    TMP DP  RH WIND       PRES   REMARKS
JACKSON        PTSUNNY   63  30  28 SW15G22   30.21R
LAMBERTVILLE   SUNNY     66  28  24 SW8G21    30.23S
LANSING        PTSUNNY   62  33  33 SW15G21   30.19S
LAPEER         FAIR      60  32  34 MISG      30.21F
MASON          PTSUNNY   62  33  33 SW7       30.19S
MONROE         MOSUNNY   64  34  32 SW9       30.22S
MT. CLEMENS    PTSUNNY   55  35  46 N16       30.22F
PONTIAC        CLOUDY    61  31  32 S10       30.21S
PORT HOPE        N/A     51  37  58 SE10G20   30.20F
PORT HURON     PTSUNNY   57  36  44 S10       30.25F
TRI CITIES     MOSUNNY   64  34  32 SW12      30.17F
TROY           MOSUNNY   63  32  31 S10       30.23F
SAGINAW HB     MOSUNNY   63  32  31 S7        30.17F
YPSILANTI      SUNNY     68  25  19 S15       30.22S
$$
MIZ043>046-050>051-056>058-064>065-071>073-077>080-180000-
SOUTHWEST LOWER MICHIGAN

CITY           SKY/WX    TMP DP  RH WIND       PRES   REMARKS
BATTLE CREEK   PTSUNNY   63  35  35 SW14      30.19S
BENTON HARBOR  PTSUNNY   55  36  48 W3        30.21R
BIG RAPIDS     MOSUNNY   55  36  48 W13       30.18S
COLDWATER      PTSUNNY   61  32  33 SW13G18   30.21S
FREMONT        FAIR      54  35  49 W12       30.20S
HOLLAND        MOSUNNY   54  36  50 W8        30.22R
GRAND RAPIDS   PTSUNNY   59  36  42 W14       30.20S
IONIA          FAIR      59  33  37 W14       30.18R
KALAMAZOO      PTSUNNY   62  36  37 NW10      30.20R
LUDINGTON      PTSUNNY   44  36  72 SW7       30.22S
MARSHALL       PTSUNNY   61  33  35 SW13G18   30.20R
MOUNT PLEASANT MOSUNNY   60  35  39 W13       30.18R
MUSKEGON       PTSUNNY   51  33  50 W7        30.22R
SOUTH HAVEN    MOSUNNY   56  34  44 W5        30.21S
$$
MIZ016>042-180000-
NORTHERN LOWER MICHIGAN

CITY           SKY/WX    TMP DP  RH WIND       PRES   REMARKS
ALPENA         MOSUNNY   46  31  55 SE13      30.21F
BEAVER ISLAND  CLOUDY    41  30  64 SW5       30.22R
BELLAIRE       PTSUNNY   50  31  49 NW5       30.21R
CADILLAC       PTSUNNY   53  35  50 SW12      30.17S
CHARLEVOIX     MOSUNNY   44  32  62 W10       30.25R
FRANKFORT      CLOUDY    41  33  74 CALM      30.21S
GAYLORD        CLOUDY    53  31  42 S5        30.16S
GRAYLING       PTSUNNY   57  30  35 SW8G21    30.17S
HARBOR SPRINGS PTSUNNY   48  30  50 W8        30.21R
HOUGHTON LAKE  PTSUNNY   54  32  43 SW15G24   30.17S
MANISTEE       CLOUDY    48  34  57 W6        30.22S
OSCODA         MOSUNNY   48  33  55 SE9       30.19F
PELLSTON       PTSUNNY   47  31  53 N3        30.21R
ROGERS CITY    PTSUNNY   42  33  69 E9        30.22S
TRAVERSE CITY  CLOUDY    51  34  52 W10       30.19R
$$
MIZ007>008-015-180000-
EASTERN UPPER MICHIGAN

CITY           SKY/WX    TMP DP  RH WIND       PRES   REMARKS
KINROSS        CLOUDY    37  30  75 E9        30.23S WCI  31
MACKINAC ISLAN CLOUDY    35  31  87 E10G21    30.21S WCI  27
NEWBERRY       CLOUDY    35  29  78 E7        30.21S WCI  29
S. S. MARIE    CLOUDY    38  26  62 VRB7      30.24F WCI  33
MUNISING         N/A     40  31  70 S3        30.21R
$$
MIZ004>006-011>014-085-180000-
CENTRAL UPPER MICHIGAN

CITY           SKY/WX    TMP DP  RH WIND       PRES   REMARKS
MANISTIQUE     MOSUNNY   36  31  81 E8        30.21R WCI  30
ESCANABA       PTSUNNY   41  30  65 W8        30.21R
MENOMINEE      PTSUNNY   45  34  65 N5        30.20R
SAWYER-GWINN   CLOUDY    36  32  87 SW5       30.19R WCI  32
$$
MIZ001>003-009>011-084-180000-
WESTERN UPPER MICHIGAN

CITY           SKY/WX    TMP DP  RH WIND       PRES   REMARKS
IRON MOUNTAIN  CLOUDY    38  32  79 W6        30.19R WCI  33
HOUGHTON       CLOUDY    32  30  92 W10       30.19R FOG     WCI  24
COPPER HARBOR    N/A     34  31  88 SW7       30.20R WCI  28
IRONWOOD       CLOUDY    34  27  75 NW9       30.21R WCI  26
$$

ABBREVIATIONS USED IN REMARKS
   TC - TEMPERATURE IN CELSIUS
  WCI - WIND CHILL INDEX
   HX - HEAT INDEX
  VSB - VISIBILITY




USA.gov is the U.S. government's official web portal to all federal, state and local government web resources and services.